Погода в Оханске

Погода в Оханске : погода сейчас, прогноз погоды и архив. Всё, что Вы хотите узнать о погоде в Оханске!

Поиск расширенной информации на нашем сайте:

Другие новости

Новости СМИ2

Главная страница сайта

Новости сайта

03.07.2017

Напоминаем, что на нашем специализированном сайте Метеоцентр.Азия вы можете получить высокодетализированные автоматические прогнозы погоды по пунктам России, СНГ и мира в авиационном формате (включающие направление и скорость ветра, видимость, явления погоды, количество и форму облачности, нижнюю и верхнюю границу облачности).

Рекомендуем: Детский трикотаж оптом из иваново valeriya-ivanovo.ru.

Погода в Оханске - сегодня

Время (UTC), дата Ветер
(°,м/с) 
Видим.   Явления Облачность Т
(°С)
Тd
(°С)
f(%) Тe
(°С)
Pmin
(гПа)
dP
(гПа)
Po
(мм)
O2
(г/м3)
Тmin Tmax R s Состояние
почвы
18 19.02.18 170 (Ю) 4000 м  слаб. снег  10/10 2000 м 
[Ns]
-8.3 -10.2 86 -11  1022.5  -0.8  751  313           
21 19.02.18 160 (Ю) 4000 м  слаб. снег  10/10 2000 м 
[Ns]
-8.9 -10.9 85 -11  1021  -1.5  750  313           
00 20.02.18 160 (Ю) 4000 м  слаб. снег  10/10 2000 м 
[Ns]
-8.9 -10.8 86 -9  1019.8  -1.2  749  313           
03 20.02.18 170 (Ю) 4000 м  слаб. снег  10/10 600 м 
[Ns]
-8.7 -10.4 87 -10  1017.9  -1.9  748  312  -9.6    36  равномерный
сухой снег
100% 
06 20.02.18 180 (Ю) 10 км  слаб. снег  10/10 1000 м 
[Ns]
-8.3 -10.3 85 -10  1017  -0.8  747  311           
09 20.02.18 тихо ()   10 км  слаб. ливневой снег  10/8 600 м кучево-дожд., средняя 
[Cb calv|As op]
-6.5 -9.6 79 -7  1016.1  -0.8  746  309           
12 20.02.18 180 (Ю) 20000 м  в посл. час ливневой снег  9/5 600 м кучево-дожд., средняя 
[Cb calv|Ac trans]
-7.6 -10.1 82 -9  1015.4  -0.7  746  310           
18 20.02.18 180 (Ю) 20000 м    6/0 верхняя 
[Ci sp]
-12.5 -14.3 86 -12  1014.5  -0.6  745  316           
21 20.02.18 160 (Ю) 20000 м    3/0 верхняя 
[Ci sp]
-14.5 -16.7 83 -15  1014.2  -0.4  744  318           
00 21.02.18 170 (Ю) 20000 м    8/4 2000 м средняя, верхняя 
[Ac trans|Ci sp]
-14.4 -16.7 83 -14  1013.5  -0.7  744  318           
03 21.02.18 170 (Ю) 4000 м  слаб. снег  10/10 2000 м 
[Ns]
-13.8 -16.1 83 -14  1012.8  -0.6  743  317  -15.4    0.9  37  равномерный
сухой снег
100% 
06 21.02.18 180 (Ю) 20000 м  {снег}  9/9 2000 м средняя 
[As trans]
-12.1 -14.4 83 -14  1012.7  0.1  744  315           
09 21.02.18 180 (Ю) 20000 м  слаб. ливневой снег  6/6 600 м кучево-дожд. 
[Cb cap]
-8.8 -11.9 78 -10  1012.3  0.1  743  311           
12 21.02.18 190 (Ю) 20000 м  слаб. ливневой снег  10/8 600 м кучево-дожд., средняя 
[Cb cap|As op]
-8.1 -11.1 79 -10  1012.4  0.2  744  310           
18 21.02.18 240 (ЮЗ) 4000 м  слаб. снег{ливн. осадки}  8/8 2000 м средняя 
[As trans]
-10.2 -12.2 85 -10  1013.2  0.3  744  313           
21 21.02.18 260 (З) 20000 м  {снег}  4/4 2000 м средняя 
[Ac trans]
-13.2 -15.3 84 -15  1013.9  0.4  744  316           
00 22.02.18 240 (ЮЗ) 4000 м  слаб. снег  9/9 2000 м средняя 
[As trans]
-13.4 -15.7 83 -16  1014.2  0.3  745  317           
03 22.02.18 230 (ЮЗ) 4000 м  слаб. снег  8/8 2000 м средняя 
[As trans]
-15.1 -17.5 82 -17  1014.7  0.3  745  319  -15.1    0.6  38  равномерный
сухой снег
100% 
09 22.02.18 230 (ЮЗ) 20000 м  {снег}  6/0 верхняя 
[Ci fib]
-12.4 -16.9 69 -16  1015.8  0.5  746  316           
12 22.02.18 250 (З) 20000 м  в посл. час снег  6/3 600 м верхняя 
[Cu hum|Ci fib]
-12.1 -16.6 69 -15  1016.5  0.8  746  316           
18 22.02.18 260 (З) 20000 м  {снег}  8/6 2000 м средняя, верхняя 
[Ac trans|Ci sp]
-16.2 -19.1 78 -19  1018.7  0.8  748  322           
21 22.02.18 250 (З) 20000 м    4/0 верхняя 
[Ci fib]
-18.3 -21 79 -21  1019.3  0.4  748  325           
00 23.02.18 240 (ЮЗ) 20000 м    4/0 верхняя 
[Ci fib]
-20.2 -23 78 -23  1019.8  0.3  748  327           
09 23.02.18 200 (Ю) 20000 м    3/3 600 м верхняя 
[Cu hum|Ci fib]
-15.1 -20.2 65 -19  1019.4  -0.2  748  321           
12 23.02.18 230 (ЮЗ) 20000 м    8/5 600 м кучево-дожд., верхняя 
[Cb cap|Ci fib]
-13.7 -18.6 66 -17  1019.4  0.1  748  319           
Время (UTC), дата Ветер
(°,м/с) 
Видим.   Явления Облачность Т
(°С)
Тd
(°С)
f(%) Тe
(°С)
Pmin
(гПа)
dP
(гПа)
Po
(мм)
O2
(г/м3)
Тmin Tmax R s Состояние
почвы

Для получения пояснительной информации подведите курсор к названию столбца.

ПОГОДА в Оханске - архив

Всё, что Вы хотите узнать о погоде в Оханске - удобно и подробно!

Выберите нужную дату (начиная с 1 января 2015* года) и нажмите кнопку "Найти".
Будут отображены архивные сводки погоды по пункту Оханск, начиная с указанной даты.


Отображать данные в формате CSV (для использования в таблицах Excel)


Внимание! Наш архив погоды предназначен исключительно для личного некоммерческого использования в познавательных целях. Если Вам необходимы официальные справки о состоянии погоды (для производственных, юридических, коммерческих и т.п. целей), обращайтесь в органы Росгидромета.

*Примечание: данная дата относится к архиву по метеостанциям СССР (Россия, СНГ, Балтия).
Архив по метеостанциям Зарубежной Европы и Азии (кроме Китая) хранится 10 дней, по другим регионам земного шара (Китай, Африка, Америка, Австралия, Океания) - 1 день.

Оханск - район местоположения метеостанции


Название, широта, долгота, высота метеостанции:
Оханск 57.7°ш. 55.4°д. 163 м над ур. моря [Российская Федерация]

Дополнительная информация

В oтличие oт бoльшинства пoгoдных сайтoв мы публикуем пoдрoбную метеoинфoрмацию в детальнoм прoфессиoнальнoм фoрмате.

Характеристики температуры и влажнoсти вoздуха измеряются на высoте 2 м в тени вдали oт зданий и деревьев.
Скoрoсть ветра измеряется на высoте 10 м (на урoвне рoста челoвека скoрoсть ветра ниже в 1.5-2 раза). Если метеoстанция нахoдится в гoрoде или в лесу, тo скoрoсть ветра занижена на 2-4 м/с пo сравнению с oткрытым местoм. Скoрoсть ветра над акватoриями крупных рек и oзёр, а также на вершинах хoлмoв на 2-5 м/с выше, чем в oбычных услoвиях.
Атмoсфернoе давление в разных тoчках местнoсти мoжет значительнo oтличаться oт давления на метеoстанции, в зависимoсти oт услoвий рельефа (при пoдъёме на 10 м давление пoнижается примернo на 1 мм рт.ст.).